TimeCST,TemperatureF,Dew PointF,Humidity,Sea Level PressureIn,VisibilityMPH,Wind Direction,Wind SpeedMPH,Gust SpeedMPH,PrecipitationIn,Events,Conditions,WindDirDegrees,DateUTC
12:15 AM,71.6,60.8,69,30.15,10.0,SE,24.2,-,N/A,,Overcast,130,2012-12-31 06:15:00
12:35 AM,69.8,60.8,73,30.13,9.0,ESE,24.2,-,N/A,,Overcast,120,2012-12-31 06:35:00
12:55 AM,71.6,60.8,69,30.13,10.0,ESE,25.3,-,N/A,,Overcast,120,2012-12-31 06:55:00
1:15 AM,71.6,62.6,73,30.12,9.0,ESE,25.3,-,N/A,,Mostly Cloudy,120,2012-12-31 07:15:00
1:35 AM,71.6,60.8,69,30.12,9.0,SE,25.3,-,N/A,,Mostly Cloudy,130,2012-12-31 07:35:00
1:55 AM,71.6,60.8,69,30.10,10.0,SE,24.2,-,N/A,,Overcast,130,2012-12-31 07:55:00
2:15 AM,71.6,60.8,69,30.10,9.0,SE,26.5,-,N/A,,Mostly Cloudy,130,2012-12-31 08:15:00
2:35 AM,71.6,62.6,73,30.10,10.0,SE,27.6,-,N/A,,Overcast,130,2012-12-31 08:35:00
2:55 AM,71.6,62.6,73,30.10,10.0,SE,24.2,29.9,N/A,,Overcast,130,2012-12-31 08:55:00
3:15 AM,71.6,62.6,73,30.09,9.0,SE,24.2,-,N/A,,Overcast,140,2012-12-31 09:15:00
3:35 AM,71.6,62.6,73,30.09,9.0,SE,24.2,-,N/A,,Overcast,140,2012-12-31 09:35:00
3:55 AM,71.6,62.6,73,30.08,10.0,SE,25.3,-,N/A,,Unknown,130,2012-12-31 09:55:00
4:15 AM,71.6,62.6,73,30.06,9.0,SE,24.2,-,N/A,,Unknown,130,2012-12-31 10:15:00
4:35 AM,71.6,62.6,73,30.06,8.0,SE,26.5,-,N/A,,Unknown,130,2012-12-31 10:35:00
4:55 AM,71.6,62.6,73,30.05,7.0,SE,25.3,31.1,N/A,,Overcast,130,2012-12-31 10:55:00
5:15 AM,71.6,64.4,78,30.04,7.0,SE,28.8,-,N/A,,Overcast,130,2012-12-31 11:15:00
5:35 AM,71.6,64.4,78,30.04,8.0,SE,26.5,-,N/A,,Overcast,130,2012-12-31 11:35:00
5:55 AM,71.6,64.4,78,30.05,7.0,SE,24.2,-,N/A,,Overcast,140,2012-12-31 11:55:00
6:15 AM,71.6,64.4,78,30.05,7.0,SE,25.3,-,N/A,,Overcast,140,2012-12-31 12:15:00
6:55 AM,71.6,64.4,78,30.03,7.0,SE,26.5,-,N/A,,Overcast,140,2012-12-31 12:55:00
7:15 AM,71.6,66.2,83,30.04,6.0,SE,24.2,-,N/A,,Haze,130,2012-12-31 13:15:00
7:35 AM,71.6,66.2,83,30.04,5.0,SE,24.2,-,N/A,,Haze,140,2012-12-31 13:35:00
7:55 AM,71.6,66.2,83,30.04,4.0,SE,20.7,-,N/A,,Haze,130,2012-12-31 13:55:00
8:15 AM,71.6,66.2,83,30.04,5.0,SE,18.4,-,N/A,,Haze,140,2012-12-31 14:15:00
8:35 AM,73.4,66.2,78,30.05,4.0,SSE,17.3,-,N/A,,Haze,150,2012-12-31 14:35:00
8:55 AM,71.6,66.2,83,30.05,4.0,SE,21.9,-,N/A,,Haze,140,2012-12-31 14:55:00
9:15 AM,71.6,68.0,88,30.05,4.0,SE,21.9,-,N/A,,Haze,140,2012-12-31 15:15:00
9:35 AM,73.4,68.0,83,30.05,4.0,SE,20.7,-,N/A,,Haze,140,2012-12-31 15:35:00
9:55 AM,73.4,68.0,83,30.05,3.0,SSE,21.9,-,N/A,,Haze,150,2012-12-31 15:55:00
10:15 AM,69.8,66.2,88,30.05,1.5,SSW,16.1,25.3,N/A,,Mostly Cloudy,200,2012-12-31 16:15:00
10:35 AM,69.8,66.2,88,30.04,2.0,South,13.8,-,N/A,,Mostly Cloudy,180,2012-12-31 16:35:00
10:55 AM,69.8,66.2,88,30.04,5.0,South,13.8,-,N/A,,Mostly Cloudy,180,2012-12-31 16:55:00
11:15 AM,69.8,68.0,94,30.04,2.5,South,11.5,-,N/A,,Mostly Cloudy,180,2012-12-31 17:15:00
11:35 AM,69.8,68.0,94,30.03,3.0,South,15.0,-,N/A,,Mostly Cloudy,180,2012-12-31 17:35:00
11:55 AM,69.8,66.2,88,30.02,2.0,SSW,15.0,-,N/A,,Scattered Clouds,200,2012-12-31 17:55:00
12:15 PM,69.8,66.2,88,30.00,2.0,SSW,17.3,-,N/A,,Scattered Clouds,200,2012-12-31 18:15:00
12:35 PM,69.8,68.0,94,29.99,3.0,South,16.1,-,N/A,,Mostly Cloudy,190,2012-12-31 18:35:00
12:55 PM,69.8,68.0,94,29.98,1.5,SSW,18.4,-,N/A,,Mostly Cloudy,200,2012-12-31 18:55:00
1:15 PM,69.8,68.0,94,29.97,4.0,South,13.8,-,N/A,,Mostly Cloudy,190,2012-12-31 19:15:00
1:35 PM,69.8,68.0,94,29.96,4.0,South,16.1,-,N/A,,Mostly Cloudy,190,2012-12-31 19:35:00
1:55 PM,69.8,68.0,94,29.95,7.0,South,17.3,-,N/A,,Partly Cloudy,180,2012-12-31 19:55:00
2:15 PM,71.6,68.0,88,29.94,7.0,South,18.4,-,N/A,,Clear,170,2012-12-31 20:15:00
2:35 PM,71.6,68.0,88,29.93,8.0,South,17.3,-,N/A,,Clear,170,2012-12-31 20:35:00
2:55 PM,71.6,68.0,88,29.93,7.0,South,16.1,-,N/A,,Clear,170,2012-12-31 20:55:00
3:15 PM,71.6,66.2,83,29.93,8.0,South,16.1,-,N/A,,Clear,170,2012-12-31 21:15:00
3:35 PM,71.6,66.2,83,29.93,9.0,South,16.1,-,N/A,,Clear,170,2012-12-31 21:35:00
3:55 PM,71.6,66.2,83,29.92,8.0,SSE,17.3,-,N/A,,Clear,160,2012-12-31 21:55:00
4:15 PM,71.6,66.2,83,29.92,9.0,South,16.1,-,N/A,,Clear,170,2012-12-31 22:15:00
4:35 PM,71.6,68.0,88,29.93,8.0,South,16.1,-,N/A,,Scattered Clouds,170,2012-12-31 22:35:00
4:55 PM,71.6,68.0,88,29.93,8.0,South,16.1,-,N/A,,Mostly Cloudy,170,2012-12-31 22:55:00
5:15 PM,71.6,68.0,88,29.93,8.0,SSE,15.0,-,N/A,,Overcast,160,2012-12-31 23:15:00
5:35 PM,71.6,68.0,88,29.92,8.0,SSE,13.8,-,N/A,,Overcast,160,2012-12-31 23:35:00
6:15 PM,71.6,68.0,88,29.92,10.0,SSE,12.7,-,N/A,,Overcast,160,2013-01-01 00:15:00
6:35 PM,71.6,68.0,88,29.92,8.0,SSE,10.4,-,N/A,,Overcast,150,2013-01-01 00:35:00
6:55 PM,71.6,68.0,88,29.92,9.0,SE,8.1,-,N/A,,Overcast,140,2013-01-01 00:55:00
7:15 PM,71.6,68.0,88,29.93,8.0,SSE,9.2,-,N/A,,Overcast,150,2013-01-01 01:15:00
7:35 PM,71.6,68.0,88,29.93,8.0,SE,9.2,-,N/A,,Overcast,140,2013-01-01 01:35:00
7:55 PM,71.6,68.0,88,29.94,7.0,SSE,9.2,-,N/A,,Mostly Cloudy,150,2013-01-01 01:55:00
8:15 PM,71.6,68.0,88,29.95,8.0,SE,9.2,-,N/A,,Overcast,140,2013-01-01 02:15:00
8:35 PM,71.6,68.0,88,29.95,8.0,SE,9.2,-,N/A,,Overcast,140,2013-01-01 02:35:00
8:55 PM,71.6,69.8,94,29.95,8.0,SE,9.2,-,N/A,,Overcast,140,2013-01-01 02:55:00
9:15 PM,71.6,69.8,94,29.95,7.0,SE,6.9,-,N/A,,Overcast,140,2013-01-01 03:15:00
9:35 PM,71.6,69.8,94,29.96,7.0,SSE,6.9,-,N/A,,Overcast,150,2013-01-01 03:35:00
9:55 PM,71.6,69.8,94,29.96,7.0,SSE,5.8,-,N/A,,Overcast,150,2013-01-01 03:55:00
10:15 PM,71.6,69.8,94,29.96,6.0,SSE,6.9,-,N/A,,Mostly Cloudy,150,2013-01-01 04:15:00
10:25 PM,71.6,69.8,94,29.96,6.0,South,6.9,-,N/A,,Scattered Clouds,170,2013-01-01 04:25:00
10:55 PM,71.6,69.8,94,29.96,6.0,SSE,5.8,-,N/A,,Scattered Clouds,150,2013-01-01 04:55:00
11:15 PM,71.6,69.8,94,29.96,6.0,South,6.9,-,N/A,,Clear,170,2013-01-01 05:15:00
11:35 PM,71.6,69.8,94,29.95,5.0,SSE,6.9,-,N/A,,Scattered Clouds,150,2013-01-01 05:35:00
11:55 PM,71.6,69.8,94,29.94,5.0,SE,8.1,-,N/A,,Overcast,140,2013-01-01 05:55:00